STARLINK-4679, 53782

Orbit data source: Space-Track

STARLINK-4679, 53782 is a payload satellite owned by SpaceX/Seattle (US) in LEO that was launched on Sun, 11 Sep 2022 UTC via an FALCON 9 launch vehicle from the Air Force Eastern Test Range (AFETR). Payload-class satellites include a variety of spacecraft equipped with specific instruments for various scientific and technological missions. These include communications satellites like Starlink; space stations such as the ISS; scientific satellites like the Hubble; Earth observation satellites from companies like Planet Labs, Umbra, and HawkEye 360; GPS; miniature CubeSats for education and research; and military/defense satellites.

Loading next visibility...
Identifier
53782, 2022-111K
Orbit
LEO
Country
Flag of USUS
Related business
Manufacturer
SpaceX/Seattle
Mission
Operational Commercial Communications
Bus & Motor
STARLINK, Unknown motor
Mass
305 kg wet, ~290 kg dry
Launch date (UTC)
2022-09-11 (3 years ago)
Launch vehicle
FALCON 9
Launch site
Air Force Eastern Test Range (AFETR)
Object type
Payload
Rocket body
Debris
Shape & HBR
Box + 1 Pan, 10.1 m
Radar Cross Section
13.562 m², Large (>1 m²)

Expand to show TLE details & history
Last TLE update: 12 hours ago

TLE from 12 hours ago
0 STARLINK-4679
1 53782U 22111K   25286.49475357 -.00002171  00000-0 -11842-3 0  9991
2 53782  53.2175 214.9820 0001252  93.9104 266.2031 15.08829675171473
Epoch: 2025-10-13T11:52Z
TLE epoch observation values (Epoch: 2025-10-13T11:52:26.708Z)
Latitude
-0.00004°
Longitude
14.57396°
Altitude
540.73 km
Speed
7.593 km/s
True Right ascension
14h 19m 55s
True Declination
0° 00' 00"
Sunlit
Object was in daylight at epoch
Visualization orbit readout
Latitude
Unknown
Longitude
Unknown
Altitude
Unknown
Speed
Unknown
Apparent Right ascension
Unknown
Apparent Declination
Unknown
Sunlit
N/A
Visualization observer readout
Local Sidereal Time
18:51:37
Azimuth
Unknown
Elevation
Unknown
Doppler factor
Unknown
Orbital elements
Apogee altitude
540.886 km
Perigee altitude
539.154 km
Semi-major axis
6,918.157 km
Eccentricity
0.00013
Inclination
53.2175°
RAAN
214.982°
Arg. of periapsis
93.9104°
True anomaly
266.18878°
Mean anomaly
266.2031°
Eccentric anomaly
266.19594°
Mean motion
3.77188 °/min
Orbital period
95.44 mins
BSTAR
-0.00011842
Loading maneuver chart data...
Computing Atmospheric mass density...
Loading historical data...
Loading historical data...
Loading historical data...
Loading historical data...
Loading historical data...
Loading historical data...
Loading historical data...

Documentation

Showing up to 5 results
|